TimeMST,TemperatureF,Dew PointF,Humidity,Sea Level PressureIn,VisibilityMPH,Wind Direction,Wind SpeedMPH,Gust SpeedMPH,PrecipitationIn,Events,Conditions,WindDirDegrees,DateUTC
12:53 AM,10.9,8.1,88,29.84,4.0,North,5.8,-,0.01,Snow,Light Snow,360,2012-12-27 07:53:00
1:10 AM,10.4,8.6,92,29.68,2.5,North,3.5,-,0.00,Snow,Light Snow,10,2012-12-27 08:10:00
1:28 AM,10.4,8.6,92,29.69,3.0,North,5.8,-,0.01,,Overcast,360,2012-12-27 08:28:00
1:53 AM,10.0,8.1,92,29.86,4.0,North,4.6,-,0.01,Snow,Light Snow,360,2012-12-27 08:53:00
2:21 AM,10.4,8.6,92,29.70,2.5,North,4.6,-,0.00,Snow,Light Snow,10,2012-12-27 09:21:00
2:32 AM,10.4,8.6,92,29.70,3.0,North,4.6,-,0.01,Snow,Light Snow,350,2012-12-27 09:32:00
2:41 AM,10.4,8.6,92,29.71,2.5,North,4.6,-,0.01,Snow,Light Snow,350,2012-12-27 09:41:00
2:53 AM,10.0,8.1,92,29.88,2.0,Calm,Calm,-,0.01,Snow,Light Snow,0,2012-12-27 09:53:00
3:53 AM,9.0,7.0,92,29.88,2.5,North,6.9,-,0.02,,Overcast,350,2012-12-27 10:53:00
4:02 AM,8.6,6.8,92,29.71,4.0,North,8.1,-,N/A,,Overcast,350,2012-12-27 11:02:00
4:53 AM,8.1,5.0,87,29.89,5.0,NNW,10.4,-,N/A,,Overcast,330,2012-12-27 11:53:00
5:53 AM,7.0,3.9,87,29.91,5.0,NNW,10.4,-,0.01,,Overcast,340,2012-12-27 12:53:00
6:53 AM,6.1,3.0,87,29.93,5.0,NNW,12.7,-,N/A,,Overcast,330,2012-12-27 13:53:00
7:49 AM,5.0,1.4,85,29.76,2.5,NNW,10.4,-,N/A,,Overcast,340,2012-12-27 14:49:00
7:53 AM,5.0,1.9,87,29.96,3.0,NNW,11.5,-,N/A,,Overcast,340,2012-12-27 14:53:00
8:10 AM,5.0,1.4,85,29.77,2.5,NNW,10.4,-,0.01,,Overcast,330,2012-12-27 15:10:00
8:27 AM,5.0,1.4,85,29.78,3.0,NNW,12.7,-,0.01,,Overcast,340,2012-12-27 15:27:00
8:36 AM,5.0,1.4,85,29.78,2.5,NNW,12.7,-,0.01,,Overcast,330,2012-12-27 15:36:00
8:46 AM,5.0,1.4,85,29.79,3.0,NNW,9.2,-,0.01,,Overcast,340,2012-12-27 15:46:00
8:53 AM,5.0,1.0,84,29.99,3.0,NNW,9.2,-,0.01,,Overcast,340,2012-12-27 15:53:00
9:53 AM,7.0,1.9,80,30.01,3.0,NNW,10.4,-,N/A,,Haze,340,2012-12-27 16:53:00
10:08 AM,6.8,1.4,79,29.81,2.5,NNW,12.7,-,0.01,,Haze,340,2012-12-27 17:08:00
10:30 AM,6.8,1.4,79,29.82,7.0,NNW,11.5,-,0.01,,Overcast,340,2012-12-27 17:30:00
10:53 AM,7.0,3.0,84,30.01,6.0,NNW,8.1,-,0.01,,Overcast,340,2012-12-27 17:53:00
11:53 AM,9.0,3.9,80,30.00,4.0,North,11.5,-,N/A,,Haze,350,2012-12-27 18:53:00
12:00 PM,8.6,3.2,79,29.79,3.0,NNW,10.4,-,N/A,,Haze,340,2012-12-27 19:00:00
12:19 PM,8.6,3.2,79,29.79,9.0,NNW,10.4,-,N/A,,Overcast,340,2012-12-27 19:19:00
12:39 PM,10.4,5.0,79,29.79,2.5,North,9.2,-,0.00,Snow,Light Snow,350,2012-12-27 19:39:00
12:53 PM,10.0,5.0,80,29.99,2.5,North,9.2,-,0.00,Snow,Light Snow,350,2012-12-27 19:53:00
1:20 PM,10.4,6.8,85,29.79,3.0,North,9.2,-,0.00,,Overcast,360,2012-12-27 20:20:00
1:29 PM,10.4,6.8,85,29.79,2.0,North,8.1,-,0.01,Snow,Light Snow,360,2012-12-27 20:29:00
1:39 PM,10.4,6.8,85,29.79,1.8,North,8.1,-,0.01,Snow,Light Snow,360,2012-12-27 20:39:00
1:53 PM,10.4,6.8,85,29.79,2.0,North,8.1,-,N/A,Snow,Light Snow,10,2012-12-27 20:53:00
2:07 PM,10.4,6.8,85,29.79,4.0,North,8.1,-,0.00,Snow,Light Snow,10,2012-12-27 21:07:00
2:53 PM,9.0,5.0,84,30.02,10.0,North,8.1,-,0.00,,Overcast,10,2012-12-27 21:53:00
3:04 PM,8.6,6.8,92,29.82,10.0,North,6.9,-,N/A,,Overcast,360,2012-12-27 22:04:00
3:53 PM,9.0,5.0,84,30.04,7.0,Calm,Calm,-,N/A,,Overcast,0,2012-12-27 22:53:00
4:00 PM,8.6,5.0,85,29.83,7.0,Calm,Calm,-,N/A,,Overcast,0,2012-12-27 23:00:00
4:53 PM,6.8,3.2,85,29.84,10.0,Calm,Calm,-,N/A,,Overcast,0,2012-12-27 23:53:00
5:17 PM,10.4,6.8,85,29.84,10.0,NW,4.6,-,N/A,,Overcast,310,2012-12-28 00:17:00
5:53 PM,9.0,8.1,96,30.07,10.0,West,3.5,-,N/A,,Overcast,280,2012-12-28 00:53:00
6:28 PM,3.2,3.2,100,29.85,10.0,WSW,4.6,-,N/A,,Scattered Clouds,240,2012-12-28 01:28:00
6:36 PM,6.8,5.0,92,29.86,2.5,Calm,Calm,-,N/A,,Mostly Cloudy,0,2012-12-28 01:36:00
6:50 PM,6.8,5.0,92,29.86,5.0,Calm,Calm,-,N/A,,Mostly Cloudy,0,2012-12-28 01:50:00
6:53 PM,6.1,5.0,95,30.09,5.0,Calm,Calm,-,N/A,,Mostly Cloudy,0,2012-12-28 01:53:00
7:05 PM,5.0,3.2,92,29.87,7.0,WSW,5.8,-,N/A,,Scattered Clouds,240,2012-12-28 02:05:00
7:53 PM,3.9,1.9,91,30.10,10.0,WSW,5.8,-,N/A,,Clear,240,2012-12-28 02:53:00
8:53 PM,3.9,1.9,91,30.11,10.0,Calm,Calm,-,N/A,,Clear,0,2012-12-28 03:53:00
9:53 PM,7.0,3.9,87,30.10,10.0,Calm,Calm,-,N/A,,Clear,0,2012-12-28 04:53:00
10:53 PM,10.0,7.0,87,30.09,10.0,Calm,Calm,-,N/A,,Overcast,0,2012-12-28 05:53:00
11:53 PM,14.0,10.0,84,30.07,10.0,WSW,9.2,-,N/A,,Overcast,250,2012-12-28 06:53:00